Temp
9 9 9 9 9 9 9 10 10 10 9 9 9 9 9 8 7 7 8 8 7 7 6 5 5 5 4 4 5 4 5 5 5 5 5 6 6 6 6 6 6 6 6 6 5 5 5 6 6
9 9 9 8 8 9 11 10 9 9 10 9 8 8 8 9 7 7 7 7 7 7 7 6 6 5 5 4 4 4 4 5 5 5 5 5 5 5 5 6 6 6 6 5 5 5 5 5 5
8 9 8 7 8 9 9 8 8 9 9 8 8 8 8 8 8 7 7 7 7 7 6 6 6 5 5 4 4 4 4 4 4 4 5 5 5 5 5 5 6 6 6 6 5 5 5 5 5
8 8 8 8 9 9 9 9 10 9 9 8 8 7 7 7 7 7 7 7 7 7 6 5 5 5 4 4 4 4 4 4 4 4 5 4 5 5 5 5 5 6 6 6 5 5 5 6 6
8 7 7 7 9 9 9 9 10 9 9 8 7 8 8 8 7 7 7 7 7 6 6 6 5 5 5 5 5 5 5 5 4 5 5 5 5 5 5 5 5 5 5 5 5 5 5 5 5
8 7 7 8 9 9 9 9 8 8 9 8 7 7 7 7 7 7 7 6 6 6 6 6 6 5 5 5 5 5 5 5 5 5 5 5 5 5 5 5 5 5 5 5 5 5 5 5 5
8 7 7 8 9 9 9 8 8 7 8 7 8 7 7 7 7 7 6 6 6 6 6 5 5 5 5 5 5 5 5 5 6 5 5 5 5 5 6 5 5 5 5 5 5 5 5 5 5
7 7 7 8 8 8 7 8 7 7 8 8 7 7 8 7 6 6 6 6 6 5 5 5 5 5 5 5 5 5 5 5 5 5 5 5 5 5 5 5 6 5 5 5 5 5 5 5 5
7 6 7 8 8 8 7 7 7 7 7 7 7 7 7 6 6 6 5 5 5 4 4 4 4 4 4 4 4 4 5 4 4 4 5 5 5 5 5 5 5 5 5 5 5 5 5 5 5
7 7 7 8 8 7 8 7 7 7 7 7 7 7 6 6 6 5 5 5 4 4 4 3 3 3 3 3 4 4 4 4 5 5 5 5 5 5 5 5 5 5 5 6 6 5 5 5 5
7 8 8 8 8 7 7 7 8 7 7 7 6 6 6 5 5 5 5 5 4 4 4 4 3 3 3 3 3 3 4 4 5 5 5 5 5 5 5 5 6 5 6 5 6 6 5 5 5
7 7 7 8 7 7 7 6 7 6 6 7 7 6 5 5 5 5 5 4 4 4 4 4 4 3 3 3 3 3 3 4 4 4 4 5 5 5 5 5 5 5 5 5 5 5 6 6 6
6 6 7 7 7 6 6 6 6 6 7 6 7 6 5 5 4 4 4 3 3 3 3 3 3 3 3 3 3 3 3 3 2 2 2 3 3 4 4 5 5 6 6 6 6 6 6 6 6
6 7 7 7 7 6 6 5 6 5 6 6 6 6 5 5 5 4 4 3 3 3 3 2 2 2 2 1 1 1 1 1 1 2 2 2 2 2 2 2 3 4 4 5 5 6 6 6 6
6 5 6 7 6 6 6 6 7 5 6 5 6 5 5 5 5 4 4 4 3 3 2 2 2 2 1 1 1 1 1 1 2 2 3 3 4 4 4 4 4 5 4 4 5 5 5 5 5
5 5 5 7 6 6 5 6 6 7 6 6 5 5 5 5 4 4 4 3 3 2 2 2 1 1 1 1 1 1 1 1 1 1 2 2 2 3 3 3 4 4 4 5 5 5 5 5 5
4 5 5 4 5 5 5 5 6 6 6 6 6 6 5 5 5 4 4 3 2 2 1 1 0 0 -0 -0 -0 -0 -0 -0 -0 -0 -0 0 1 1 2 2 2 3 3 3 4 4 4 5 5
4 3 4 4 4 4 4 6 5 5 5 5 5 5 5 5 4 3 3 2 1 1 0 -0 -1 -1 -1 -2 -2 -2 -2 -1 -1 -1 -1 -1 -0 0 -0 0 0 1 1 2 2 3 3 4 4
4 4 3 4 3 3 4 4 6 5 4 5 6 5 5 4 3 2 1 1 0 -0 -1 -1 -2 -3 -3 -2 -2 -2 -1 -1 -2 -2 -2 -1 -1 -1 -0 -1 -1 -2 -2 -2 -3 -2 -1 -1 0
3 2 3 2 2 2 2 3 4 4 6 6 5 5 5 4 3 2 1 0 -1 -2 -2 -2 -3 -3 -3 -3 -2 -2 -2 -2 -2 -2 -2 -2 -2 -2 -2 -2 -3 -4 -3 -4 -6 -7 -7 -7 -7
2 2 2 1 1 1 0 3 4 5 5 6 6 6 6 5 3 3 1 -0 -1 -2 -3 -3 -4 -4 -4 -4 -3 -3 -3 -3 -4 -4 -4 -5 -5 -5 -6 -6 -6 -7 -8 -8 -9 -9 -9 -9 -9
1 2 1 0 -1 -1 -3 -3 2 3 4 4 5 5 5 4 4 3 1 0 -2 -3 -3 -4 -5 -5 -5 -5 -5 -5 -5 -5 -5 -6 -6 -7 -8 -9 -9 -9 -9 -9 -10 -10 -11 -11 -11 -11 -10
1 0 -0 -1 -2 -4 -3 -4 1 2 3 4 4 4 4 4 3 2 1 -1 -3 -3 -5 -5 -6 -6 -6 -6 -6 -6 -6 -6 -7 -7 -8 -9 -10 -11 -11 -11 -11 -11 -12 -12 -13 -13 -12 -12 -12
-0 -2 -4 -4 -5 -7 -1 -1 0 3 4 3 4 4 3 3 2 2 1 -1 -1 -3 -4 -6 -6 -6 -6 -7 -7 -7 -7 -8 -8 -9 -10 -11 -12 -12 -12 -12 -13 -14 -14 -14 -13 -13 -13 -14 -13
-2 -3 -4 -4 -7 -6 -1 -3 -0 2 2 3 2 3 2 1 1 1 1 0 -1 -3 -5 -6 -7 -7 -7 -8 -8 -9 -9 -9 -10 -11 -12 -13 -13 -13 -13 -14 -14 -15 -15 -14 -14 -15 -14 -14 -14
-2 -3 -3 -3 -2 -4 -3 -3 2 1 2 2 2 1 1 -0 -0 -1 -1 -2 -3 -5 -6 -7 -8 -8 -9 -9 -10 -10 -11 -11 -12 -13 -13 -14 -14 -14 -14 -15 -15 -15 -15 -15 -15 -15 -15 -15 -15
-4 -4 -3 -4 -5 -6 -3 -1 0 1 1 1 1 0 -1 -1 -2 -2 -2 -3 -5 -6 -8 -9 -10 -10 -10 -11 -11 -12 -12 -13 -13 -14 -14 -15 -14 -15 -15 -16 -16 -16 -16 -16 -15 -15 -15 -15 -15
-3 -5 -6 -6 -8 -6 -4 -1 -0 1 1 1 1 0 -1 -2 -2 -3 -4 -5 -6 -8 -9 -10 -10 -11 -12 -12 -13 -13 -14 -14 -14 -15 -15 -15 -15 -16 -16 -16 -16 -16 -16 -16 -16 -15 -16 -16 -16
-3 -5 -6 -6 -7 -8 -7 -3 -1 0 0 -1 -1 -2 -3 -3 -4 -5 -6 -7 -8 -10 -11 -11 -12 -12 -13 -13 -14 -14 -15 -15 -15 -16 -16 -15 -16 -16 -16 -16 -16 -16 -16 -16 -16 -16 -16 -17 -17
-5 -6 -6 -7 -8 -8 -9 -5 -3 -2 -2 -2 -3 -4 -4 -5 -6 -9 -10 -9 -10 -11 -12 -12 -13 -14 -14 -14 -15 -15 -16 -16 -16 -16 -16 -16 -16 -17 -17 -17 -17 -16 -16 -16 -16 -17 -17 -17 -18
Height
3126 3126 3127 3128 3133 3128 3126 3126 3123 3123 3125 3125 3126 3127 3128 3128 3130 3133 3129 3131 3133 3135 3137 3138 3141 3141 3141 3143 3144 3145 3147 3148 3149 3149 3150 3152 3152 3152 3152 3153 3154 3156 3156 3156 3158 3159 3159 3162 3163
3125 3125 3125 3126 3128 3126 3124 3121 3121 3119 3121 3121 3122 3123 3124 3125 3126 3126 3129 3130 3131 3133 3135 3135 3137 3139 3140 3141 3142 3143 3144 3145 3146 3146 3148 3149 3149 3150 3151 3152 3154 3154 3153 3155 3156 3157 3158 3158 3161
3124 3124 3125 3125 3124 3122 3122 3120 3117 3118 3118 3119 3120 3121 3122 3122 3124 3125 3126 3127 3129 3130 3132 3132 3133 3135 3136 3138 3139 3140 3141 3142 3142 3143 3144 3146 3146 3147 3148 3150 3152 3152 3153 3154 3154 3155 3157 3158 3158
3122 3123 3125 3122 3120 3120 3118 3116 3117 3117 3117 3117 3118 3120 3119 3120 3122 3124 3124 3125 3127 3127 3127 3129 3131 3133 3133 3136 3136 3137 3138 3139 3139 3141 3142 3142 3143 3144 3145 3146 3148 3149 3151 3152 3153 3154 3155 3156 3157
3120 3121 3120 3119 3118 3117 3117 3114 3116 3114 3114 3115 3115 3116 3117 3118 3119 3120 3122 3122 3123 3125 3126 3126 3127 3128 3130 3131 3132 3133 3134 3135 3136 3136 3138 3138 3138 3139 3142 3143 3143 3145 3146 3148 3149 3150 3152 3153 3154
3117 3119 3118 3117 3117 3112 3114 3113 3112 3111 3111 3112 3111 3113 3115 3116 3117 3118 3119 3120 3121 3122 3124 3124 3126 3127 3128 3128 3128 3129 3130 3131 3131 3131 3132 3133 3134 3134 3136 3137 3139 3140 3142 3143 3144 3146 3147 3148 3149
3114 3114 3112 3113 3115 3110 3109 3110 3109 3107 3107 3108 3108 3108 3112 3112 3114 3115 3116 3117 3119 3119 3120 3121 3122 3124 3124 3125 3126 3126 3126 3127 3127 3127 3128 3127 3128 3129 3130 3130 3133 3134 3135 3138 3139 3141 3142 3143 3144
3111 3110 3108 3109 3110 3110 3101 3106 3106 3103 3102 3105 3105 3102 3105 3108 3110 3111 3111 3113 3114 3115 3116 3118 3119 3120 3120 3119 3120 3120 3120 3121 3121 3121 3121 3121 3123 3123 3124 3126 3126 3127 3129 3130 3133 3135 3136 3138 3140
3106 3106 3104 3106 3106 3102 3101 3101 3101 3100 3099 3100 3100 3099 3104 3105 3105 3106 3107 3108 3109 3110 3111 3112 3113 3114 3114 3115 3115 3115 3116 3115 3115 3115 3115 3116 3116 3116 3117 3118 3120 3120 3121 3123 3125 3127 3128 3130 3132
3101 3100 3100 3100 3101 3098 3098 3097 3097 3095 3094 3094 3095 3096 3098 3099 3100 3100 3101 3102 3103 3103 3104 3105 3105 3105 3106 3106 3106 3107 3107 3107 3107 3107 3107 3108 3109 3110 3110 3110 3111 3113 3114 3115 3117 3118 3120 3122 3124
3096 3096 3095 3096 3096 3095 3093 3092 3092 3091 3088 3089 3091 3091 3092 3093 3094 3094 3095 3096 3096 3097 3097 3098 3098 3098 3098 3098 3099 3100 3100 3101 3101 3102 3102 3103 3102 3102 3102 3103 3103 3105 3107 3108 3108 3110 3111 3114 3115
3093 3092 3091 3090 3091 3090 3087 3086 3085 3085 3082 3083 3085 3085 3085 3086 3086 3087 3088 3088 3089 3090 3090 3090 3090 3090 3090 3090 3091 3092 3093 3093 3093 3093 3094 3094 3095 3095 3096 3096 3096 3097 3097 3098 3099 3101 3102 3103 3105
3088 3086 3087 3085 3085 3083 3081 3081 3080 3078 3077 3077 3078 3080 3080 3080 3080 3080 3080 3080 3081 3081 3081 3082 3083 3084 3084 3084 3084 3083 3083 3083 3084 3084 3085 3087 3088 3088 3088 3088 3089 3089 3090 3088 3088 3089 3091 3093 3094
3083 3083 3082 3081 3079 3078 3077 3076 3074 3073 3073 3072 3072 3073 3073 3074 3074 3074 3074 3074 3073 3073 3074 3074 3074 3074 3074 3075 3075 3074 3074 3074 3075 3076 3077 3078 3079 3079 3079 3080 3081 3081 3081 3080 3081 3080 3081 3082 3083
3080 3079 3076 3076 3074 3073 3071 3070 3068 3067 3068 3068 3068 3068 3067 3067 3066 3066 3066 3066 3066 3067 3067 3067 3067 3067 3067 3067 3067 3066 3066 3066 3066 3065 3065 3065 3066 3066 3066 3067 3067 3067 3069 3069 3068 3069 3071 3073 3073
3077 3076 3071 3069 3068 3066 3066 3062 3063 3062 3063 3062 3062 3062 3061 3061 3059 3058 3058 3058 3058 3060 3061 3060 3060 3060 3060 3060 3060 3059 3059 3059 3059 3058 3058 3057 3056 3055 3056 3055 3055 3054 3055 3056 3058 3058 3059 3058 3061
3071 3067 3066 3065 3064 3060 3059 3057 3056 3055 3055 3055 3056 3055 3054 3054 3053 3050 3052 3052 3052 3053 3054 3054 3053 3053 3053 3053 3053 3053 3052 3052 3051 3051 3050 3049 3048 3047 3047 3046 3045 3045 3044 3044 3045 3046 3046 3047 3047
3067 3065 3064 3063 3060 3056 3052 3050 3048 3050 3048 3049 3047 3046 3045 3044 3045 3042 3044 3044 3045 3044 3045 3046 3046 3047 3047 3047 3047 3047 3047 3046 3044 3041 3039 3038 3037 3035 3034 3033 3032 3030 3030 3030 3030 3031 3032 3032 3033
3062 3060 3059 3060 3054 3051 3047 3039 3044 3037 3038 3041 3039 3037 3035 3034 3035 3034 3035 3035 3036 3037 3037 3038 3038 3039 3039 3039 3039 3038 3037 3035 3033 3030 3028 3026 3024 3021 3020 3019 3018 3017 3016 3016 3016 3016 3016 3017 3017
3057 3053 3051 3050 3047 3044 3040 3029 3030 3031 3022 3031 3030 3026 3025 3024 3022 3024 3026 3027 3028 3028 3029 3030 3030 3030 3030 3030 3028 3028 3026 3024 3022 3019 3017 3012 3009 3006 3005 3003 3001 3001 3001 3000 2999 2998 2998 2999 2999
3050 3048 3047 3045 3040 3038 3034 3013 3018 3017 3017 3019 3020 3019 3014 3012 3013 3013 3016 3018 3019 3020 3021 3022 3022 3022 3021 3020 3019 3017 3015 3014 3011 3009 3006 3005 3002 2999 2995 2992 2990 2989 2988 2987 2987 2985 2984 2983 2986
3044 3043 3040 3039 3039 3036 3031 3015 3006 3009 3012 3010 3011 3009 3007 3006 3005 3005 3009 3010 3012 3012 3014 3014 3014 3014 3013 3012 3010 3008 3006 3004 3003 3001 2999 2996 2994 2991 2988 2985 2982 2980 2978 2976 2974 2975 2973 2971 2971
3040 3039 3037 3036 3034 3030 3025 3028 2995 3002 3004 3003 3003 3003 3000 2999 3000 3000 3003 3004 3004 3003 3006 3007 3007 3008 3007 3005 3002 3001 2999 2997 2995 2993 2991 2988 2985 2983 2982 2979 2976 2973 2969 2967 2966 2965 2965 2967 2965
3034 3033 3032 3030 3030 3026 3013 3013 2987 2993 2993 2995 2993 2994 2993 2993 2994 2994 2996 2996 2997 2998 2999 3001 3001 3000 2999 2997 2995 2993 2991 2989 2986 2984 2980 2977 2976 2974 2972 2969 2966 2964 2962 2961 2960 2959 2959 2957 2955
3030 3031 3031 3028 3028 3016 3009 3007 2985 2988 2990 2992 2991 2988 2987 2988 2987 2987 2989 2990 2991 2992 2994 2995 2995 2994 2992 2990 2989 2987 2983 2979 2976 2973 2971 2969 2967 2964 2962 2959 2957 2956 2955 2953 2952 2951 2950 2948 2946
3026 3028 3029 3024 3017 3011 3006 2995 2980 2983 2986 2986 2984 2983 2982 2982 2983 2982 2983 2985 2985 2987 2988 2989 2989 2988 2985 2983 2981 2978 2974 2970 2968 2965 2963 2960 2957 2955 2953 2952 2950 2948 2946 2946 2944 2943 2941 2939 2938
3019 3019 3020 3019 3016 3013 2993 2982 2977 2976 2978 2978 2978 2977 2978 2979 2978 2978 2978 2979 2981 2982 2983 2983 2982 2981 2978 2975 2972 2968 2965 2962 2960 2958 2954 2951 2950 2947 2945 2943 2942 2941 2940 2938 2936 2934 2933 2931 2928
3014 3016 3016 3016 3015 3005 2983 2974 2968 2969 2970 2970 2970 2970 2970 2971 2972 2973 2973 2975 2976 2977 2978 2978 2976 2973 2970 2966 2963 2960 2957 2954 2952 2948 2946 2944 2942 2940 2937 2935 2934 2934 2932 2930 2927 2925 2924 2921 2919
3007 3006 3009 3009 3005 3001 2991 2966 2965 2968 2967 2966 2965 2964 2964 2965 2966 2967 2970 2970 2970 2971 2971 2968 2966 2965 2962 2958 2955 2952 2949 2946 2942 2940 2938 2936 2934 2932 2930 2927 2926 2926 2924 2922 2919 2916 2913 2911 2909
2997 2999 3000 3001 2996 2993 2989 2959 2965 2964 2964 2962 2960 2958 2957 2958 2959 2961 2963 2964 2964 2965 2963 2960 2957 2954 2951 2950 2947 2945 2941 2938 2935 2933 2930 2928 2925 2924 2921 2920 2920 2918 2916 2913 2910 2907 2905 2902 2900
Wind_Speed
4 4 5 8 6 6 12 12 16 18 17 21 19 22 21 20 18 8 5 13 19 18 18 21 21 20 19 15 13 11 17 13 17 14 13 13 13 10 20 14 10 8 9 10 10 10 11 10 9
5 5 6 7 6 14 10 14 12 20 14 12 17 18 23 24 22 19 11 8 11 13 14 20 21 22 22 21 18 19 18 16 17 18 18 16 15 14 11 17 19 15 12 11 11 10 9 10 9
5 6 8 2 7 15 1 6 16 15 13 14 16 17 18 21 25 24 21 18 17 15 16 19 26 25 22 20 19 17 18 19 18 18 19 21 19 17 17 17 18 17 20 19 15 13 14 15 12
7 8 8 12 10 13 15 17 16 15 15 15 15 14 20 21 19 21 23 22 20 19 18 19 23 27 24 24 21 20 19 20 20 21 20 20 21 20 21 20 20 21 21 21 20 18 18 19 19
10 10 12 13 12 20 19 21 18 15 17 18 19 21 17 17 21 20 19 19 18 17 17 17 17 18 21 20 20 20 21 22 21 21 21 22 24 23 24 24 23 24 24 24 24 23 21 21 20
13 12 11 14 17 23 22 20 16 17 18 18 22 22 22 19 18 18 18 17 17 17 16 16 17 18 19 20 21 22 23 23 24 24 24 23 24 26 26 26 27 27 27 27 26 26 25 24 23
14 13 19 15 18 20 23 22 18 19 20 21 24 24 23 23 20 20 20 19 18 18 18 18 19 20 21 22 24 25 25 26 28 26 27 27 27 27 28 28 29 30 30 30 30 29 28 27 27
14 18 18 13 18 16 28 22 18 22 25 21 22 25 26 23 21 21 21 20 20 19 20 20 22 22 23 23 24 26 25 26 26 27 28 28 28 29 29 31 32 31 31 33 33 33 32 32 31
14 17 18 12 16 23 26 25 22 23 24 22 24 27 22 19 21 21 21 21 21 22 23 23 23 24 25 26 25 25 27 27 26 26 27 28 30 31 31 32 33 34 35 35 35 35 36 36 35
18 20 18 21 22 26 24 25 23 24 25 25 25 24 23 23 24 25 25 24 24 24 25 25 26 26 25 25 24 23 22 23 24 26 27 28 29 29 30 31 32 34 35 37 38 38 39 39 38
17 20 22 21 22 26 29 27 25 24 27 24 23 24 24 26 26 26 26 25 26 27 28 28 28 27 26 24 23 23 24 25 26 27 28 29 29 29 30 30 32 32 33 34 36 39 40 41 41
20 20 23 25 23 25 28 27 26 25 29 26 24 24 27 28 27 27 27 28 28 29 29 29 29 28 27 26 26 27 27 28 28 28 27 27 28 29 31 32 33 34 35 35 35 36 37 40 42
19 24 22 25 24 25 28 26 27 27 29 27 26 25 27 29 29 29 29 29 30 29 29 28 28 28 28 29 29 29 29 29 27 25 25 26 28 29 31 33 35 36 37 39 40 41 40 40 41
24 23 23 23 25 26 27 28 30 27 29 29 27 27 27 29 30 30 30 30 30 30 29 29 29 29 30 30 30 30 29 26 25 27 29 29 30 32 31 32 34 36 37 38 41 43 45 46 45
21 24 24 25 26 27 29 31 34 31 31 30 29 28 29 30 30 30 31 31 31 31 31 31 31 32 32 33 33 31 28 28 30 32 36 38 38 39 38 38 39 39 39 41 43 44 44 45 48
22 24 25 26 24 24 24 29 26 33 26 24 24 27 30 32 32 32 33 33 33 33 32 33 33 34 34 34 33 30 29 31 33 35 37 39 40 41 41 41 43 44 44 44 46 47 49 51 52
19 18 20 20 23 26 26 28 29 31 30 28 29 32 33 34 36 38 35 34 34 34 35 35 35 34 34 33 30 30 31 32 35 37 37 38 39 41 41 42 42 42 44 45 47 48 50 51 53
9 17 19 17 21 30 34 37 36 34 36 33 36 38 40 40 39 41 37 37 36 36 36 36 35 34 33 31 29 29 31 35 37 39 40 41 41 41 41 41 42 43 44 45 46 48 49 52 53
25 28 30 29 33 37 42 45 36 40 40 38 40 40 42 43 42 43 40 39 38 38 37 36 35 33 30 29 29 32 36 37 40 42 43 43 43 44 44 43 42 43 44 44 43 43 45 46 50
30 32 34 30 29 33 36 46 43 40 47 38 40 44 45 47 49 45 42 40 38 37 37 36 34 32 30 28 31 35 38 42 44 43 43 45 46 46 47 48 48 46 48 47 44 42 41 40 40
28 27 27 29 32 35 37 54 31 16 21 19 23 31 41 45 45 45 42 39 37 37 35 33 31 30 29 29 33 37 42 44 44 44 44 42 42 43 43 44 46 47 46 44 42 42 42 41 37
24 23 23 25 23 10 12 14 37 29 27 30 27 33 39 39 40 40 38 36 34 35 32 30 29 28 28 31 35 40 43 43 44 43 41 40 38 37 39 41 43 44 43 42 39 37 39 40 41
24 22 22 22 23 23 20 13 26 11 24 27 27 31 35 36 38 37 33 31 32 33 29 27 27 26 29 34 40 42 43 44 43 40 39 37 36 36 35 37 39 38 37 36 36 37 37 36 37
23 24 23 20 12 7 23 26 13 16 19 17 21 27 31 35 37 36 32 31 33 29 27 25 25 28 33 38 41 42 43 42 39 38 37 36 35 33 33 34 33 32 32 32 33 35 35 36 36
18 12 4 3 2 7 5 16 38 21 22 23 24 28 32 32 33 32 32 31 30 29 26 25 26 31 36 39 39 40 40 38 37 35 34 33 33 32 32 31 30 29 29 30 31 33 34 34 35
9 10 5 5 3 5 17 12 24 21 18 27 27 32 35 30 28 28 28 27 29 26 24 25 29 34 38 38 38 37 36 35 33 32 32 32 32 32 30 29 28 28 28 29 30 32 33 34 36
9 14 13 9 16 9 12 20 29 31 24 21 25 30 25 24 25 25 26 28 26 25 22 26 32 37 36 36 36 34 33 33 32 31 30 31 31 31 30 28 27 27 28 29 31 33 34 36 38
23 15 7 9 4 6 9 24 25 19 25 25 25 24 22 22 23 25 25 25 26 23 26 31 36 33 33 34 32 31 30 30 30 29 30 31 31 30 29 28 27 27 27 29 32 34 35 37 37
22 26 18 10 8 4 4 10 7 16 24 23 19 18 19 23 22 20 23 27 26 24 30 36 33 31 31 30 30 29 29 28 28 29 30 31 30 29 28 28 27 27 28 29 32 33 33 33 34
26 24 22 11 7 11 4 26 19 33 27 28 33 32 27 22 19 23 26 27 25 28 32 33 31 34 31 28 27 27 27 27 28 29 30 30 30 28 27 27 27 28 29 30 31 30 29 29 30
Wind_Direction
251 243 200 196 198 234 245 232 229 248 251 242 238 227 222 216 182 219 236 228 229 232 249 247 231 231 255 243 253 241 229 246 247 247 240 239 242 249 241 248 270 274 268 266 282 292 299 293 302
251 248 186 188 236 230 266 226 241 255 262 239 226 221 225 226 224 232 251 234 221 237 250 255 251 238 238 244 248 250 252 245 249 250 251 248 252 252 237 236 245 263 273 274 275 284 291 291 293
248 225 201 256 254 258 313 213 246 271 255 231 226 228 231 229 230 237 246 249 259 260 241 240 242 243 243 239 253 252 247 251 253 250 252 253 249 253 250 246 249 246 247 268 275 271 270 276 281
242 222 213 234 231 255 255 255 269 273 249 241 230 225 229 228 232 240 248 254 257 259 253 239 238 240 241 250 253 250 252 260 254 252 257 253 253 251 253 253 252 253 254 261 266 269 262 261 270
238 237 233 255 265 260 258 261 271 262 250 241 233 230 237 236 239 244 246 250 251 250 248 246 239 243 247 248 248 251 258 255 258 259 259 258 262 254 256 259 258 258 254 257 263 266 268 269 271
239 232 236 255 262 246 258 262 263 257 258 252 242 242 242 244 247 248 251 253 255 256 252 248 247 246 246 251 256 259 259 261 262 260 261 262 258 261 258 254 257 260 261 261 260 262 265 265 263
236 231 246 242 276 271 270 268 258 255 260 245 249 245 248 247 250 254 257 258 258 258 257 254 251 250 251 253 256 257 258 259 261 263 264 265 263 259 258 260 255 255 257 260 262 262 262 263 263
238 233 248 246 254 270 267 272 269 254 259 260 251 248 249 255 257 258 256 255 256 257 255 252 253 255 260 263 264 265 264 261 261 264 268 268 266 265 262 259 262 260 257 258 259 262 264 263 263
238 238 252 251 248 246 259 272 274 273 268 261 254 258 265 257 258 261 262 262 262 259 255 256 258 260 261 262 261 258 257 261 263 264 264 264 265 266 264 263 261 261 262 260 258 259 259 261 263
240 243 247 242 246 253 266 273 271 267 266 262 257 260 262 259 260 263 265 266 266 267 267 268 268 269 270 269 267 265 265 267 270 272 272 269 266 264 266 266 263 262 260 261 262 261 259 258 258
246 250 257 260 258 260 271 269 272 267 266 269 265 260 258 260 260 263 265 266 267 269 271 273 273 274 274 273 273 274 274 272 268 265 265 267 271 273 272 271 271 269 267 264 263 262 261 259 258
258 262 263 268 265 265 268 268 274 266 266 264 262 260 258 259 259 260 262 263 266 268 270 272 274 274 274 275 275 275 274 272 271 268 264 264 265 268 270 271 272 273 273 271 268 264 262 262 261
265 268 266 269 267 263 264 267 267 263 268 268 265 261 262 263 263 262 262 263 264 266 267 268 270 271 272 272 273 275 277 276 271 266 264 263 263 263 264 266 267 266 267 271 272 271 268 264 263
270 275 277 274 272 270 270 267 266 266 269 267 269 268 265 265 266 267 268 268 267 268 270 271 272 273 276 279 282 284 283 279 277 279 278 274 272 273 276 277 276 273 269 263 263 264 267 267 265
273 274 275 278 277 273 273 271 276 278 273 270 271 271 271 271 271 269 266 266 268 270 272 273 276 278 281 285 288 288 284 282 284 286 288 288 288 286 285 283 280 277 277 279 278 274 269 265 264
282 282 276 283 284 282 277 276 273 278 277 275 271 274 275 274 270 266 265 265 266 268 270 273 275 278 282 285 284 281 281 282 285 289 291 291 292 292 291 290 288 286 282 279 276 273 272 272 270
276 269 277 283 280 279 277 281 284 283 278 276 277 277 279 277 272 268 268 267 268 268 269 271 274 277 280 281 280 280 282 288 292 293 294 296 295 293 293 291 289 287 284 282 279 276 274 271 269
259 262 278 276 275 282 282 283 285 281 276 275 274 275 277 276 272 268 266 265 265 266 267 271 274 276 279 278 276 278 283 288 292 297 299 299 298 298 297 295 293 292 290 287 283 279 275 273 270
268 269 269 265 276 277 280 282 283 282 273 274 278 278 277 274 272 267 265 264 264 267 269 271 272 275 277 276 279 286 293 296 301 302 303 302 301 299 299 298 297 295 294 291 287 282 278 274 271
271 274 275 285 276 274 280 280 283 276 280 278 273 271 271 271 270 268 267 265 263 264 268 272 277 280 280 282 287 293 297 301 302 303 304 307 307 305 304 303 302 300 297 296 296 294 290 285 280
273 270 273 268 279 282 291 289 291 274 263 272 263 264 266 267 269 269 267 266 265 265 267 271 275 277 279 286 293 297 302 303 304 307 306 305 304 304 304 303 302 301 300 298 297 296 293 290 284
277 277 276 277 285 280 285 293 284 280 273 269 268 260 263 268 268 269 269 269 266 264 267 269 272 274 281 290 298 302 303 303 304 303 303 303 303 303 302 300 299 298 297 297 297 295 293 291 288
277 281 286 291 286 287 280 249 284 276 273 274 270 266 262 262 267 272 271 268 264 263 264 268 271 277 287 296 301 303 303 302 302 302 301 301 302 301 299 296 294 294 296 296 296 293 289 285 281
277 284 286 286 283 260 260 226 282 273 279 260 262 259 256 261 264 266 268 267 267 267 267 267 272 283 293 299 301 300 300 300 300 300 302 302 301 299 298 297 296 295 294 292 289 287 285 285 283
272 262 325 247 227 241 288 223 252 267 275 278 271 264 260 259 258 260 263 266 265 265 263 267 277 288 295 297 296 297 298 298 300 302 301 300 299 301 300 299 298 294 291 290 288 288 287 287 286
273 198 195 278 282 302 297 253 274 277 278 284 271 263 262 258 255 256 258 256 255 255 257 268 282 291 294 292 296 297 298 299 300 299 299 300 302 302 300 297 296 294 291 289 288 287 287 287 285
255 225 244 233 269 267 245 261 269 279 280 280 283 274 268 261 253 251 253 251 248 252 260 280 287 292 290 294 297 298 299 299 298 298 301 303 302 300 298 298 296 293 291 290 289 288 288 287 286
248 244 212 196 229 241 258 259 250 268 282 282 285 272 260 251 247 248 251 245 252 250 272 280 288 288 292 297 299 298 297 296 297 301 303 301 299 298 299 297 294 293 292 292 291 290 289 287 285
255 238 225 225 215 227 297 258 245 288 288 291 273 257 259 264 252 243 256 251 243 266 279 289 291 291 297 297 298 298 297 297 301 302 301 299 298 299 297 296 294 293 294 294 292 292 290 289 288
260 248 250 222 220 227 303 267 272 285 292 292 280 281 267 245 240 255 254 241 246 275 282 293 292 298 299 298 297 297 297 300 302 302 300 299 299 298 297 293 291 294 297 297 297 295 293 291 292